Wind_Speed
7 7 7 7 7 8 8 8 8 8 9 9 10 10 10 10 10 9 9 9 9 9 9 10 11 11 12 12 13 15 16 16 14 15 19 12 8 12 12 12 10 7 8 10 11 11 12 13 15 11 6 10 12 14 15 15 18 13 5 4 5 5 5 5 3 2 3 2 4 5 7 5 3 7 6 4 6 7 3 13 16 16 15 10 7 11 20 21
8 8 8 7 7 8 8 8 8 9 9 10 10 10 10 11 11 11 10 10 9 9 9 10 11 11 12 12 13 15 17 17 17 21 20 10 10 13 11 12 10 8 7 11 14 13 13 11 11 9 9 14 13 15 14 12 15 9 3 4 6 5 8 10 6 2 5 4 3 5 7 5 3 7 5 3 8 7 1 11 16 18 16 13 14 18 21 21
9 9 8 8 8 8 9 9 9 9 10 10 11 11 11 11 11 11 10 10 9 9 10 10 10 11 12 11 12 15 16 17 19 22 17 10 14 14 12 13 11 11 9 11 12 11 10 8 7 9 14 15 15 18 15 12 13 10 7 4 6 6 8 14 11 8 12 9 6 8 9 7 6 8 4 4 10 10 3 10 12 16 17 17 18 21 23 22
9 9 9 9 9 9 9 10 10 10 10 10 11 11 12 12 12 11 10 10 9 9 10 10 10 11 11 10 11 14 15 15 14 16 10 8 13 12 12 13 12 13 11 11 13 12 10 11 12 13 15 13 16 20 13 13 11 9 9 5 6 8 8 14 11 11 12 11 8 8 9 8 9 6 2 5 8 8 3 16 17 16 17 18 20 22 24 22
9 9 9 9 10 10 10 10 10 10 10 11 11 12 12 12 12 11 10 9 8 9 9 9 9 10 10 9 11 12 11 7 5 6 2 2 6 8 9 10 11 12 11 13 15 15 14 16 17 16 14 10 12 14 11 18 16 6 9 11 12 11 9 13 11 8 7 8 5 4 4 7 11 6 3 2 4 6 2 17 19 17 15 17 23 24 23 20
9 8 9 10 10 10 11 11 11 11 11 11 11 12 12 13 13 11 10 9 8 8 8 8 9 9 9 8 10 11 6 1 1 1 0 1 1 4 5 7 10 11 13 17 18 15 13 14 16 15 12 7 8 8 11 19 17 5 7 11 15 15 10 14 14 2 5 5 3 2 6 9 9 6 6 4 7 10 3 16 16 14 14 20 25 23 22 18
9 9 9 10 10 10 11 12 12 12 12 12 12 12 12 12 12 11 10 9 8 8 8 8 8 9 8 7 9 10 9 10 6 1 4 3 2 3 4 7 10 11 17 20 18 14 11 13 16 14 8 5 8 9 13 18 16 8 6 8 13 17 14 15 15 4 3 3 3 6 8 9 7 4 7 8 12 15 3 15 13 15 18 24 24 20 20 16
9 9 9 9 10 10 10 12 13 13 13 13 12 11 12 12 12 12 10 9 8 8 8 8 8 9 8 7 7 8 12 13 8 4 6 5 3 4 5 8 10 13 20 22 18 12 9 14 16 15 7 6 11 12 14 14 12 8 7 10 13 17 17 15 15 12 8 5 5 8 8 8 10 8 7 10 15 17 4 16 13 19 23 23 21 19 18 14
9 9 9 9 10 10 10 11 12 14 14 14 13 12 11 12 12 12 10 9 8 8 8 8 9 8 8 7 5 7 10 7 3 4 6 6 5 5 6 8 11 15 20 22 15 10 11 15 17 16 9 10 15 12 11 8 6 10 11 12 11 13 17 16 14 13 9 5 6 7 7 9 13 11 8 12 16 18 8 15 17 22 25 20 18 17 15 13
9 10 10 10 10 10 10 11 13 14 15 14 13 12 11 12 12 11 10 9 8 8 8 9 9 7 8 6 3 3 5 2 3 6 8 9 9 9 9 8 11 16 22 20 13 10 14 15 16 17 14 14 13 11 11 9 6 9 10 9 11 13 14 14 12 11 9 9 10 6 5 9 13 8 5 12 15 17 15 13 22 23 24 19 16 16 14 13
10 10 10 10 10 10 11 11 12 14 15 15 13 12 11 12 12 11 10 9 8 8 8 9 9 8 7 5 6 6 5 4 5 6 8 10 12 11 11 9 11 16 21 18 10 9 13 15 16 16 11 7 8 10 11 11 13 12 7 5 10 11 10 12 11 13 10 5 8 7 6 9 11 6 6 13 13 18 16 16 27 25 24 20 16 17 16 15
11 11 11 11 10 10 11 11 12 13 15 15 14 13 11 11 11 11 10 9 8 8 8 9 9 9 8 9 15 12 8 7 4 7 8 7 8 9 10 9 11 15 17 15 10 8 11 15 16 14 9 4 4 6 8 12 14 14 10 4 6 7 7 11 9 13 10 2 7 7 5 7 7 8 15 18 14 19 13 22 30 26 25 21 18 18 16 16
11 11 11 11 11 11 11 12 12 13 14 14 14 13 12 11 10 10 10 9 9 8 9 9 9 9 7 11 15 9 8 7 4 9 9 5 6 9 10 8 8 13 14 12 11 9 11 15 15 12 11 9 5 6 11 14 13 9 6 3 4 5 5 10 11 14 10 8 13 8 2 6 6 10 19 20 18 23 13 26 29 28 27 23 22 20 18 18
12 12 12 12 11 12 12 12 12 13 13 14 14 13 11 10 10 10 10 9 9 8 9 8 8 8 8 13 13 6 9 9 7 12 10 6 8 10 11 10 8 9 8 9 12 9 7 9 11 10 11 10 10 13 13 10 8 5 3 3 2 2 7 9 10 11 9 13 18 10 2 7 7 11 20 20 20 24 14 28 28 28 29 25 24 21 20 19
13 13 13 13 12 13 13 13 12 12 13 14 14 13 11 10 9 9 9 9 8 7 7 7 8 8 8 16 13 6 11 12 12 16 13 9 12 12 12 13 13 11 9 11 10 7 5 4 4 5 9 11 11 10 6 4 4 2 1 4 2 4 8 9 9 11 10 11 16 11 1 7 9 12 22 23 23 24 14 29 29 29 30 27 24 21 20 19
13 14 14 14 13 13 14 14 13 12 13 14 14 12 10 10 9 9 10 8 6 5 4 3 4 6 5 10 9 6 13 17 15 15 14 14 15 14 13 13 14 13 10 10 7 5 6 6 5 6 9 9 7 5 4 4 4 2 4 4 4 5 7 7 9 14 16 9 10 10 2 5 9 10 18 23 25 26 16 26 27 27 30 27 24 21 19 18
13 14 14 14 14 14 14 15 13 12 13 13 13 11 10 10 10 9 9 7 5 4 4 3 1 6 8 6 5 10 18 21 17 15 15 16 17 15 13 13 13 12 9 8 8 7 5 6 6 6 7 5 3 4 3 4 4 3 4 5 5 7 7 6 7 10 16 7 7 8 3 7 10 11 18 20 13 22 16 23 27 26 27 26 23 21 20 20
13 13 14 14 14 14 15 15 13 12 12 13 12 10 9 11 11 10 9 6 4 3 4 4 2 3 9 11 11 14 19 20 16 16 16 16 18 16 14 14 12 12 11 7 9 10 7 7 6 3 4 4 4 3 4 5 5 5 5 4 5 8 7 7 5 5 12 7 7 8 5 10 11 10 16 13 11 21 12 18 29 29 28 27 25 24 24 23
13 13 14 14 15 15 15 15 13 12 12 11 10 10 9 9 10 9 8 8 9 5 1 9 15 5 4 10 15 12 17 19 15 17 18 17 18 17 15 14 12 13 11 5 7 12 8 4 5 4 4 5 6 6 6 7 9 9 7 5 5 6 6 8 5 8 10 7 6 8 6 9 9 7 9 9 5 15 11 16 28 30 29 28 27 27 26 25
14 13 13 14 15 15 16 15 12 11 11 10 9 9 6 6 5 2 6 12 16 14 7 12 24 17 11 11 10 7 15 17 16 18 20 18 17 17 17 16 13 12 8 4 6 12 10 4 4 6 6 7 8 8 10 10 10 11 8 4 4 4 6 7 4 10 9 6 4 6 5 5 7 8 8 9 4 4 8 11 18 26 28 27 27 28 28 27
14 13 13 14 15 16 16 14 11 10 10 10 9 7 3 2 3 1 5 12 18 21 20 19 22 23 21 17 9 9 18 16 17 20 18 20 19 14 14 15 10 6 7 7 7 9 9 5 5 8 9 10 10 9 11 12 11 9 7 5 6 4 6 8 3 9 6 5 4 4 3 4 6 7 10 10 7 3 7 8 12 23 27 26 28 28 28 26
14 13 13 14 15 16 15 13 11 8 9 9 10 10 5 2 6 7 7 10 17 21 24 24 23 26 28 24 16 12 18 13 15 20 20 21 19 12 11 12 7 4 7 8 6 5 6 5 9 12 9 10 11 10 10 12 11 8 5 4 6 4 5 8 1 5 4 4 4 4 5 4 6 6 9 10 9 9 11 11 15 25 27 25 30 31 28 25
15 14 13 14 15 15 14 12 9 7 8 8 10 11 6 4 7 9 10 8 15 19 22 25 26 28 29 27 20 15 16 11 13 19 23 22 21 18 13 9 7 6 7 8 6 4 4 8 12 12 10 10 11 10 9 9 7 4 2 2 5 4 4 5 3 2 1 3 4 5 3 3 5 5 7 10 13 13 14 15 14 23 32 31 32 33 31 29
15 14 14 14 14 14 12 10 6 4 5 7 8 6 3 5 8 10 10 6 9 14 21 25 25 27 28 24 16 15 14 11 13 18 25 23 21 20 12 9 9 6 7 10 10 8 8 11 13 12 12 11 9 9 8 5 2 1 1 1 3 5 5 6 7 4 2 3 2 6 1 3 3 5 6 10 12 11 13 15 14 15 25 33 36 35 34 34
14 13 13 13 13 13 10 7 4 2 1 4 2 5 2 5 6 8 8 4 5 9 14 18 22 23 25 22 15 16 14 11 14 16 28 27 20 16 11 12 11 6 9 12 10 9 10 12 13 13 13 13 11 9 6 5 1 3 1 3 4 7 9 9 11 7 4 5 2 4 1 5 4 5 7 7 7 9 11 11 15 20 14 14 27 34 36 36
14 13 12 12 12 11 8 5 5 4 1 1 5 7 4 3 4 7 4 2 3 4 4 10 17 16 20 22 20 17 11 11 19 18 26 30 23 17 10 9 9 7 10 10 7 5 7 10 10 11 14 12 10 7 3 7 4 2 2 4 6 7 9 9 11 6 1 4 4 3 2 4 4 4 6 6 5 6 6 8 9 8 9 17 8 16 27 31
13 13 11 11 10 10 7 5 5 5 2 4 6 3 2 3 5 6 1 1 3 4 6 10 13 12 16 20 20 14 4 9 19 20 25 30 25 21 11 5 6 7 8 6 5 4 6 10 8 7 10 6 2 2 2 6 5 2 5 6 8 9 8 9 10 6 3 4 3 3 2 1 4 4 7 8 4 2 7 10 7 10 22 27 22 7 16 25
13 12 11 9 9 9 7 7 7 6 1 7 8 4 4 7 4 2 1 1 2 6 7 7 8 10 15 19 20 15 9 10 12 15 24 29 23 19 10 7 6 7 9 6 4 5 7 10 8 7 6 4 3 4 4 5 4 4 6 9 9 6 6 8 6 3 3 1 4 5 2 2 4 4 8 8 2 6 7 8 8 15 23 24 24 16 11 20
12 11 10 9 8 8 8 10 8 5 1 4 6 3 6 7 3 0 1 1 3 4 6 8 7 8 14 16 17 17 15 10 7 13 23 26 22 15 7 11 10 7 9 8 6 6 5 10 12 8 5 4 4 4 5 5 5 6 7 9 8 5 5 3 2 2 4 3 3 5 0 0 5 4 5 4 4 5 5 5 8 14 21 23 21 17 11 15
12 11 10 9 7 8 10 10 6 4 3 1 1 2 4 3 1 1 1 1 3 3 6 8 8 10 13 10 10 14 14 10 7 16 21 22 22 15 7 12 12 6 6 7 8 9 8 9 10 6 3 6 7 5 6 7 7 7 8 7 5 5 3 2 3 4 4 1 4 4 1 2 3 5 4 3 3 3 3 5 7 12 19 21 20 18 16 16
12 10 10 10 8 10 12 8 3 4 4 2 3 3 1 1 0 2 2 3 3 3 5 4 6 11 13 9 7 9 10 10 6 14 13 12 14 11 5 7 7 4 3 3 6 10 9 7 6 2 1 5 7 4 4 7 7 4 2 2 1 4 4 4 5 4 1 4 5 4 5 4 2 3 3 3 4 5 6 6 6 9 15 20 21 18 17 16
12 11 11 11 10 12 11 6 6 5 6 4 2 2 0 1 1 2 2 2 2 4 5 6 8 10 12 10 7 9 9 8 6 11 9 6 6 6 5 4 3 1 3 2 3 8 7 4 4 3 5 8 6 2 2 5 3 2 2 3 3 2 3 2 2 1 2 5 5 5 5 4 2 1 2 5 7 6 7 10 12 14 18 23 23 19 17 16
11 11 11 11 13 14 10 9 9 6 7 6 2 2 1 2 1 4 5 3 2 6 6 9 11 10 11 10 7 10 10 6 7 8 7 8 5 5 7 7 5 4 3 4 3 4 4 4 5 3 4 6 6 3 0 4 2 5 3 3 4 2 0 1 3 2 4 5 5 4 2 1 2 1 3 5 6 9 13 17 21 23 23 25 26 23 19 17
11 12 12 12 14 13 12 13 11 6 6 4 0 1 2 1 2 5 7 7 4 7 6 10 14 12 13 10 8 11 9 6 9 9 6 7 5 4 7 9 9 5 3 3 2 3 3 4 5 4 3 7 6 5 5 4 4 5 5 5 5 4 3 3 3 3 4 3 2 0 2 2 3 2 3 4 9 14 20 22 24 26 25 26 28 25 21 18
10 11 12 13 13 11 12 16 13 8 7 3 1 2 2 2 3 2 4 7 6 7 6 9 11 7 9 10 9 12 11 6 10 9 5 6 6 4 5 7 10 8 3 2 3 3 3 4 6 8 8 10 8 8 8 4 3 3 5 5 4 5 5 4 4 4 4 1 3 1 2 1 3 2 2 7 11 16 21 23 23 24 26 29 28 25 21 19
10 9 11 12 9 8 12 17 16 11 8 2 2 2 3 3 3 2 2 5 5 5 2 5 3 2 2 3 2 8 12 8 9 9 5 6 7 6 5 5 9 10 5 4 2 1 3 4 3 7 8 10 12 10 9 7 3 2 3 5 6 7 5 2 4 3 4 4 2 2 3 1 1 1 5 9 11 14 17 17 18 21 25 27 26 25 25 25
10 8 11 9 5 6 11 17 17 14 9 3 2 3 3 3 7 7 2 7 9 6 2 3 2 1 2 2 3 6 8 6 8 7 4 6 6 7 8 7 10 12 10 7 2 1 4 4 2 3 4 9 18 14 8 10 8 2 2 4 5 5 5 3 1 2 3 2 3 3 5 1 1 1 5 9 11 11 11 11 14 20 24 24 23 24 26 28
9 7 11 9 8 8 9 15 17 14 7 4 3 4 3 4 11 8 5 7 10 7 4 3 2 4 3 3 4 6 7 4 6 5 3 4 3 2 4 5 11 14 14 14 6 2 3 2 2 5 5 5 12 9 3 7 10 6 4 2 2 3 4 2 2 1 2 2 2 3 5 2 1 1 3 7 9 8 8 9 11 15 19 20 21 23 24 26
7 5 6 5 9 10 10 14 16 12 6 3 2 3 3 7 13 3 8 5 6 4 3 3 2 3 3 3 2 5 9 5 3 3 2 1 0 2 5 5 3 5 4 7 5 2 4 2 3 5 4 3 5 3 2 4 6 5 4 3 1 4 4 2 3 3 3 3 2 2 3 1 1 2 4 6 6 6 7 7 8 12 16 18 20 22 22 24
4 3 3 5 10 12 12 14 13 9 5 3 3 5 6 7 5 6 10 6 4 3 2 4 5 5 4 5 4 1 6 6 3 3 2 1 1 1 8 10 5 5 8 6 4 1 2 3 3 5 4 1 3 3 3 2 2 3 3 3 2 1 3 3 3 2 4 3 2 3 1 3 2 3 5 5 5 4 5 6 8 13 17 19 20 21 22 24
5 2 2 8 12 15 16 13 9 5 3 2 4 6 8 7 1 8 6 3 3 3 1 2 4 3 4 4 6 5 3 5 2 3 3 3 3 3 8 11 7 6 7 7 6 4 1 3 4 2 4 2 2 4 5 2 4 5 2 1 1 2 1 2 3 2 3 3 2 4 3 1 3 3 4 6 5 4 6 8 10 14 17 19 21 22 24 26
2 3 2 9 11 16 17 8 5 5 4 4 7 9 6 6 1 6 4 1 1 3 2 1 4 3 3 4 6 5 4 3 2 3 3 3 5 2 8 15 13 9 6 1 3 4 3 2 3 1 1 3 4 1 2 5 9 12 8 4 3 3 3 3 1 3 1 2 1 4 4 1 1 2 3 4 4 8 12 13 12 14 16 17 19 21 24 27
1 5 4 9 10 14 13 3 4 5 4 7 13 12 4 3 2 3 3 1 2 1 1 1 3 3 2 3 5 5 5 4 3 5 2 3 5 4 9 16 15 9 5 1 3 7 6 2 3 2 3 4 7 6 8 11 10 9 7 6 5 3 1 3 2 1 2 2 1 3 2 1 1 2 4 5 7 12 16 17 16 16 16 18 20 22 24 26
2 6 5 10 11 13 9 2 3 4 4 7 10 8 5 6 4 3 2 2 1 1 2 3 3 2 2 4 5 4 4 3 5 6 4 3 4 7 12 17 12 6 4 1 1 3 3 2 3 3 3 4 5 6 7 9 8 5 4 6 6 5 3 1 1 3 4 3 1 4 2 1 2 3 5 7 10 13 16 19 19 19 18 20 23 24 24 24
2 2 2 8 12 12 8 6 3 2 4 5 5 4 3 3 3 5 6 5 2 4 2 3 4 3 3 4 4 3 2 2 4 5 5 3 2 6 12 14 10 6 4 3 2 2 2 1 3 4 2 1 1 1 1 2 4 3 4 8 8 8 7 3 2 4 2 3 3 4 3 3 5 6 9 9 10 12 15 19 21 22 22 21 22 24 23 23
1 1 1 4 8 10 10 11 7 3 3 3 2 3 3 2 0 3 6 5 5 7 4 3 4 2 3 5 5 5 4 3 3 2 4 4 1 4 8 10 9 6 5 7 8 5 4 3 4 4 5 5 5 3 2 1 3 4 6 8 9 8 7 5 4 2 2 2 4 2 5 8 6 7 9 9 9 10 13 17 20 22 23 21 21 22 21 21
1 1 1 2 3 6 8 11 8 3 5 5 1 1 4 3 1 3 3 3 5 6 4 3 3 1 1 3 4 4 5 7 8 3 5 5 3 4 5 6 7 7 7 9 11 5 5 3 4 4 3 3 6 5 4 5 7 7 7 8 9 9 8 8 6 1 2 4 2 1 5 9 7 8 9 8 9 9 11 15 17 18 20 20 20 20 20 20
0 3 3 2 1 3 3 7 8 5 9 9 1 1 3 2 3 2 2 3 3 2 2 3 4 3 1 2 4 1 2 5 8 5 6 5 3 4 6 5 5 7 10 8 10 4 5 1 2 4 2 2 2 6 7 8 10 10 10 9 10 10 10 10 8 4 4 5 3 3 7 9 8 9 9 9 10 11 12 14 15 17 18 18 19 19 19 19
2 4 5 5 3 2 4 10 10 7 7 5 1 2 3 1 4 2 1 2 2 1 3 0 4 5 6 4 4 3 0 3 4 3 4 3 2 3 3 3 6 8 10 6 4 2 3 0 2 3 3 2 5 7 10 12 12 12 12 11 10 11 11 10 10 9 9 9 8 10 12 11 8 8 9 11 14 13 13 15 17 18 18 18 18 19 19 19
3 3 5 7 6 7 12 14 9 4 2 3 3 2 1 2 1 2 2 2 2 2 1 0 1 3 7 5 6 5 3 7 6 1 2 3 3 2 1 1 1 5 5 5 2 0 1 1 3 4 2 3 8 11 12 13 14 13 12 11 10 10 10 10 10 9 7 8 9 11 11 8 7 9 12 14 15 15 16 17 17 17 17 17 18 18 19 20
4 3 6 7 4 6 10 8 4 2 2 2 1 2 2 3 3 2 3 4 4 1 2 5 7 6 8 9 10 6 5 8 7 2 3 2 2 3 2 5 5 1 1 2 1 2 3 2 2 2 3 4 6 10 11 11 13 13 11 11 10 8 7 8 8 8 6 4 6 8 7 4 5 9 13 14 15 16 17 16 15 16 16 17 17 18 19 20
3 5 6 4 4 7 6 4 4 3 2 1 2 1 1 2 3 4 3 2 1 2 2 8 8 5 6 8 8 7 9 11 10 8 9 9 5 4 1 3 6 4 2 3 2 1 3 3 2 3 4 3 6 10 9 6 7 7 6 8 6 6 7 7 8 10 10 5 3 5 4 4 5 8 10 11 13 15 16 16 16 15 15 16 17 17 18 19
Wind_Direction
261 260 260 264 269 271 271 273 274 274 276 276 276 276 274 273 273 272 273 275 279 283 287 291 290 291 291 294 297 292 288 283 277 265 260 259 238 235 235 237 242 237 232 213 195 190 191 197 199 185 197 237 243 244 244 252 252 237 209 217 245 248 241 259 263 169 144 106 61 47 16 30 27 17 32 351 312 275 196 104 107 115 119 148 159 155 165 164
261 261 260 261 265 267 271 273 273 275 275 276 276 274 271 270 270 269 269 271 274 280 281 282 283 285 287 292 296 292 287 287 283 264 255 252 241 238 234 240 240 234 228 205 196 189 185 192 193 189 217 233 232 233 236 240 242 230 191 218 226 238 246 267 287 91 82 53 31 54 45 38 12 6 14 344 329 305 136 96 97 107 116 136 142 151 160 159
262 262 262 262 264 266 271 273 275 276 275 277 275 274 273 269 268 267 267 268 269 273 275 277 279 281 284 290 294 292 292 296 288 271 264 252 240 238 235 239 238 234 227 204 197 185 181 192 192 201 220 230 232 231 227 225 232 218 214 245 235 246 258 278 308 54 65 42 15 21 21 5 346 347 4 360 336 330 78 119 109 104 119 132 139 149 152 150
261 261 261 263 266 268 270 273 274 276 275 275 275 275 274 270 268 266 266 266 266 270 273 277 278 278 283 290 293 292 302 308 292 278 275 243 228 228 231 232 232 231 219 196 188 178 193 227 226 213 216 228 234 234 227 211 214 199 207 233 249 269 278 282 325 50 64 53 29 352 347 334 316 310 21 19 333 325 91 144 141 127 139 143 137 141 147 151
262 263 265 267 270 272 272 274 274 275 275 274 276 276 275 274 271 267 267 266 267 271 275 279 280 280 281 287 291 295 314 327 296 283 272 214 216 217 221 220 223 222 208 187 183 186 203 231 237 224 216 231 235 236 236 214 204 190 223 233 243 261 273 283 319 38 66 61 43 324 321 311 308 316 20 16 259 290 136 151 150 143 153 150 140 143 151 158
260 263 267 270 272 276 276 277 276 274 273 274 275 275 276 276 274 273 272 271 273 274 277 281 281 281 280 287 291 293 305 247 178 359 313 7 325 214 209 212 216 211 197 184 186 195 206 226 239 230 213 231 247 242 246 224 209 213 251 239 244 250 255 280 294 4 89 68 57 345 324 313 318 343 348 312 258 288 212 157 155 145 146 146 148 158 163 165
260 261 265 270 273 277 279 280 279 277 275 275 276 277 278 278 278 277 274 274 274 275 277 280 281 280 282 288 289 289 277 240 211 254 265 291 312 228 227 226 216 204 191 183 186 191 206 229 234 234 217 225 248 249 252 235 216 221 257 252 257 261 258 270 281 300 56 28 331 311 309 305 319 343 329 303 279 293 228 154 153 141 143 151 155 167 169 168
262 263 265 271 274 276 279 282 282 281 278 278 279 280 281 280 279 275 274 275 272 276 277 276 276 280 286 292 303 296 274 251 227 234 238 239 263 236 240 234 214 203 190 181 183 182 214 236 231 234 223 223 239 242 249 242 222 216 246 253 259 271 272 280 290 294 304 319 288 276 271 275 285 279 286 279 277 291 207 149 150 141 144 156 160 166 168 170
264 265 265 270 275 277 280 283 283 282 281 281 283 284 285 281 278 276 275 274 272 275 271 271 270 275 286 295 326 302 271 262 201 189 210 217 247 245 257 243 210 202 191 182 181 189 233 238 231 235 234 249 250 250 266 269 220 202 225 243 249 263 270 281 286 276 270 263 253 248 249 255 259 257 257 256 265 283 249 154 148 145 147 157 164 172 169 168
262 265 267 271 276 280 282 284 284 284 283 284 285 287 286 280 278 278 277 277 277 272 263 263 260 264 279 284 326 285 253 267 172 188 225 237 245 248 259 244 205 197 190 188 191 206 237 236 227 235 243 259 263 273 287 285 252 221 228 248 257 262 267 278 283 277 257 231 233 231 253 264 261 254 237 247 242 258 256 163 147 149 151 158 166 175 168 167
260 263 267 271 275 280 284 286 285 284 284 286 288 287 285 281 280 280 282 281 274 266 256 255 256 259 262 245 240 226 191 196 202 231 256 242 239 246 249 229 199 194 189 191 205 219 238 238 237 241 240 261 281 280 282 283 287 286 288 281 268 276 289 294 300 295 285 228 226 241 264 274 275 266 239 255 240 244 249 161 150 151 153 160 170 174 165 169
260 263 268 270 275 279 284 287 286 285 285 287 288 286 284 280 280 281 281 279 271 263 253 250 252 252 250 244 239 222 179 178 220 273 274 246 230 227 226 215 191 189 184 185 205 234 244 243 254 260 260 301 298 274 302 309 299 288 289 303 289 303 295 275 269 269 277 244 227 240 278 277 263 244 243 253 248 252 238 149 151 153 152 164 174 173 167 175
263 266 271 274 277 282 286 288 289 288 286 288 287 283 282 280 281 281 277 275 270 262 253 247 248 246 249 253 242 211 171 174 200 242 254 261 212 187 194 198 184 181 178 194 221 249 250 249 262 280 302 313 294 300 323 310 292 277 270 270 292 322 280 249 241 240 239 234 227 208 257 273 254 239 245 245 238 249 216 145 152 157 158 172 176 173 172 182
267 270 276 278 280 284 288 290 290 289 289 289 285 281 282 281 279 277 276 278 273 264 256 243 243 237 235 252 249 218 201 199 207 216 229 248 194 176 181 187 204 198 196 239 259 270 256 254 261 279 307 298 289 310 322 307 288 282 285 276 237 274 271 248 230 222 213 226 217 187 208 258 261 255 258 257 242 245 196 145 154 160 165 174 174 176 175 181
271 275 279 280 281 284 289 291 292 292 292 288 282 281 282 280 277 275 276 277 271 264 253 238 237 225 243 267 264 222 201 204 212 208 212 219 195 189 187 188 210 219 234 252 263 279 282 304 279 267 282 277 285 297 304 305 286 244 237 297 236 194 259 259 234 214 201 212 185 153 210 256 268 254 254 262 247 241 184 148 160 163 167 173 175 179 175 176
275 277 280 280 282 285 290 291 294 296 292 285 281 282 281 277 272 269 275 274 267 255 228 209 236 231 262 277 263 213 201 200 200 200 207 208 197 198 192 191 206 212 231 240 242 268 278 287 281 269 269 271 277 261 269 303 294 233 179 240 241 219 255 268 251 211 194 196 154 136 151 248 276 262 263 275 246 225 174 146 158 159 167 175 176 178 172 173
277 279 281 282 283 286 290 291 296 298 290 283 281 281 279 277 271 268 274 269 254 225 189 122 24 264 255 249 241 224 212 206 200 198 205 203 198 200 192 192 202 207 220 229 234 248 254 244 245 263 261 253 254 235 251 265 272 278 208 217 239 238 246 264 274 199 179 174 136 139 158 233 266 277 289 300 223 191 160 143 152 156 167 173 174 176 176 179
279 280 281 282 283 287 290 292 297 297 287 283 283 281 277 275 273 269 264 248 216 164 201 202 148 278 254 232 237 226 209 206 204 199 200 200 200 199 192 192 197 203 210 219 226 227 226 216 203 228 256 243 250 225 203 222 236 240 214 208 239 249 251 254 272 180 164 150 139 151 183 239 259 273 288 310 142 152 144 143 151 158 167 169 174 178 183 187
282 281 282 283 285 288 290 292 297 296 288 283 282 281 281 280 278 270 247 207 182 157 184 198 185 192 298 246 240 227 203 199 192 191 195 196 198 200 196 190 193 201 199 196 208 208 201 194 192 215 249 231 228 219 214 230 234 242 239 207 225 251 261 252 222 170 164 149 149 166 190 235 266 279 288 321 123 150 162 159 154 160 167 169 174 178 184 190
283 281 283 284 288 289 289 292 295 293 289 284 280 278 283 288 287 251 208 208 213 218 239 213 201 219 273 266 249 203 185 188 186 191 194 190 193 208 205 186 187 204 201 179 190 198 189 180 209 212 224 229 230 226 234 252 251 260 276 266 272 275 277 281 196 159 149 129 173 190 187 242 289 298 296 318 327 172 192 187 159 159 167 170 174 179 185 190
285 284 283 286 288 288 288 289 290 291 289 284 280 271 258 311 344 9 232 242 250 246 253 251 225 236 261 266 261 166 155 173 191 191 191 189 191 209 210 186 181 201 213 213 201 194 185 187 227 219 220 228 235 227 227 252 262 270 287 304 314 291 285 303 198 161 123 104 198 166 99 316 311 307 301 311 314 257 224 216 173 164 169 172 175 182 187 187
289 286 286 290 289 289 286 286 287 285 283 276 274 265 245 20 11 335 302 272 274 264 258 260 245 244 255 262 261 186 157 175 194 186 187 190 189 196 192 184 194 195 202 223 216 185 186 213 224 219 222 225 235 237 221 235 248 262 282 290 298 289 309 321 221 163 109 130 195 116 85 303 292 289 298 307 295 275 264 244 195 172 171 176 178 183 185 181
289 288 292 292 289 289 282 284 287 282 286 273 272 267 250 20 14 332 321 289 281 273 254 250 243 240 246 256 252 197 176 188 187 184 185 183 186 194 187 177 211 210 189 212 212 175 195 223 217 214 226 229 234 242 227 228 240 240 240 259 275 280 307 313 294 241 190 163 156 123 126 253 271 283 289 277 270 282 284 267 228 185 179 183 185 186 185 183
291 291 295 293 290 286 277 286 286 283 301 266 274 280 249 17 14 334 319 287 281 274 249 239 234 233 234 244 238 195 196 206 196 187 180 180 186 193 200 190 201 224 203 205 206 206 226 220 203 204 226 232 235 248 232 206 249 283 139 194 280 294 287 283 296 303 337 352 110 125 57 315 255 255 276 271 269 283 276 266 265 230 200 191 191 190 188 190
293 295 297 295 288 280 278 286 240 176 263 240 333 25 37 23 7 324 317 284 264 266 253 230 220 224 222 228 226 199 202 218 225 198 174 182 187 184 211 205 193 224 218 213 209 214 241 226 199 195 216 226 227 240 221 153 95 348 328 211 242 284 288 291 306 327 14 331 284 136 347 309 268 238 254 275 282 282 278 268 258 255 248 199 190 193 190 191
295 296 296 292 283 276 273 248 189 175 189 162 36 37 40 25 316 295 312 309 269 236 223 192 193 209 211 215 215 198 193 212 229 217 178 181 190 188 208 203 189 215 213 219 222 209 241 236 216 199 204 217 219 223 189 128 111 337 262 234 228 244 266 280 291 305 8 261 268 125 166 272 304 280 256 263 265 269 322 338 275 255 25 45 96 191 197 188
296 295 294 288 280 275 262 220 200 217 219 43 37 27 297 296 282 281 271 328 275 184 154 161 173 191 196 196 192 180 192 204 215 223 189 178 191 199 210 201 185 217 221 220 225 215 224 230 245 227 195 186 176 209 164 124 129 219 238 252 246 228 235 250 254 261 239 241 304 23 110 275 302 285 274 272 275 345 46 38 12 44 51 46 51 87 198 194
296 293 289 282 274 273 264 253 240 221 256 38 65 70 305 281 270 265 136 31 233 158 144 156 166 184 180 172 171 180 219 197 187 221 196 179 190 199 208 231 205 214 228 218 216 230 210 206 235 246 197 158 153 177 166 147 174 219 222 242 253 236 234 244 237 261 301 313 327 333 31 3 277 271 290 286 331 22 33 58 51 46 45 42 51 73 167 189
294 288 283 277 266 259 249 251 241 203 274 33 88 53 318 284 264 295 85 147 205 158 152 157 146 178 178 163 172 196 225 218 172 197 187 178 196 203 208 239 240 241 235 220 225 245 219 202 212 215 186 163 154 159 170 182 208 217 219 241 267 278 268 263 125 64 9 28 291 283 157 176 274 297 328 334 40 27 360 37 60 59 53 48 54 72 117 154
289 283 280 275 255 236 236 240 222 175 196 213 189 299 307 278 256 84 95 217 232 165 155 153 141 178 184 165 181 200 224 243 189 176 174 172 195 213 233 242 249 269 246 224 230 251 262 238 219 211 199 178 164 164 195 217 227 218 216 232 273 296 298 14 62 64 38 2 250 270 252 190 274 325 4 24 29 29 20 25 40 57 58 53 55 71 95 119
282 282 278 274 251 234 243 237 169 137 160 166 281 268 291 332 79 122 160 226 242 144 137 151 153 174 178 168 186 192 215 250 188 161 169 168 186 209 236 248 254 274 272 251 241 248 258 257 234 222 89 144 147 156 211 234 235 212 188 149 15 336 5 21 8 35 44 267 264 282 285 258 237 300 327 13 26 35 45 37 28 43 54 51 52 68 90 103
280 282 272 271 256 238 238 200 151 149 162 162 233 245 203 94 138 215 232 272 242 170 163 179 176 174 175 180 189 182 202 240 186 161 172 161 170 194 191 210 208 195 279 273 245 245 243 250 238 182 111 109 113 92 304 277 252 122 65 67 92 324 358 20 336 352 226 249 240 231 260 264 195 205 329 16 28 33 43 43 38 39 43 42 45 62 79 85
280 279 269 271 263 245 227 180 162 169 171 159 164 235 201 113 170 227 244 291 191 183 183 168 172 177 175 187 196 180 193 218 179 169 170 159 167 183 188 216 205 153 216 234 219 236 247 267 255 216 149 128 123 120 218 279 201 144 163 132 132 167 118 232 241 224 229 237 223 196 165 167 154 18 352 25 33 35 44 45 43 42 42 41 43 53 60 62
280 279 274 270 260 246 219 188 176 180 171 149 88 251 157 148 241 214 229 270 240 221 227 167 171 181 175 192 200 174 188 208 173 163 158 161 176 182 185 217 226 198 190 228 222 184 201 246 238 239 192 140 141 170 187 227 216 183 187 157 153 167 164 204 214 192 218 256 283 218 99 143 166 245 311 42 47 44 48 46 42 40 41 43 42 43 45 46
282 279 274 264 252 241 213 190 188 185 157 134 300 226 170 205 260 207 232 274 255 236 232 156 162 179 176 198 201 175 182 189 166 164 162 165 177 191 185 201 222 225 182 173 248 208 205 232 207 212 204 162 161 195 195 220 270 219 183 158 179 190 174 207 221 189 165 80 345 8 49 21 154 204 339 50 43 41 47 42 38 36 36 41 39 34 34 33
288 273 265 262 248 231 205 189 191 179 155 181 258 206 219 229 248 246 255 302 290 251 238 102 95 8 170 211 243 188 191 182 163 162 168 179 179 186 195 189 204 217 199 173 228 207 202 261 210 196 205 171 168 187 184 189 236 267 197 190 207 200 177 203 258 241 110 92 274 171 103 4 86 13 8 43 37 32 37 32 30 31 35 41 38 33 29 26
299 271 256 250 208 193 191 186 187 171 162 223 235 214 259 259 260 270 339 350 328 305 321 69 92 277 190 216 268 202 184 169 166 165 171 187 185 189 200 194 189 206 213 198 230 256 194 257 266 196 243 190 177 181 182 183 188 218 254 222 203 197 190 165 241 309 82 108 259 149 128 126 95 324 345 32 35 28 27 18 19 26 33 37 36 35 31 28
317 290 257 224 162 158 176 180 178 166 173 235 253 255 273 268 267 284 29 3 330 332 2 56 164 221 200 212 238 181 151 146 168 166 165 174 179 207 212 203 188 197 210 204 216 291 186 264 277 212 250 210 170 166 195 204 195 197 235 261 117 159 219 212 179 228 130 147 270 97 106 83 73 267 341 36 39 34 31 22 18 23 30 33 31 33 34 33
335 325 273 197 161 176 171 164 167 169 196 234 240 247 243 248 255 286 53 10 323 345 8 9 326 271 256 267 270 152 142 142 154 133 114 139 251 312 353 359 183 187 223 205 202 207 154 109 289 240 237 207 151 134 204 225 211 211 257 307 94 153 187 210 205 198 144 156 210 95 75 346 314 344 17 43 47 49 48 37 29 29 33 33 30 31 34 36
25 349 295 131 156 181 164 153 164 179 216 231 231 245 258 262 244 73 52 15 334 345 2 353 352 349 317 309 329 90 128 121 117 110 88 44 64 10 11 12 10 12 13 33 52 31 138 125 220 278 309 232 171 164 183 182 181 219 239 248 275 262 194 195 222 193 143 155 179 122 87 293 306 11 29 41 39 46 59 60 53 42 35 30 28 32 35 38
58 312 282 121 150 172 158 155 178 202 238 245 250 260 276 284 96 79 50 11 337 306 257 330 337 335 314 342 359 351 77 99 85 79 61 36 77 65 6 1 354 7 21 29 37 27 19 139 174 281 339 304 224 184 190 175 78 67 33 232 308 351 164 193 278 258 155 148 163 138 135 278 316 359 39 45 33 37 57 67 66 53 42 32 28 33 36 38
88 257 179 134 169 179 161 163 212 210 225 247 253 257 262 271 323 64 52 99 233 276 236 273 315 322 325 8 10 358 35 42 26 74 61 49 84 71 356 359 5 35 61 35 357 9 5 92 100 43 268 271 307 2 91 56 71 75 49 19 43 45 67 101 270 276 26 49 60 99 109 174 309 20 69 70 54 53 54 61 67 57 50 42 35 37 38 36
167 261 202 154 184 185 164 181 248 211 236 259 258 266 288 317 332 49 48 103 177 270 330 317 311 331 4 26 13 19 45 41 71 97 84 54 54 15 20 25 21 33 59 28 339 352 354 43 61 2 304 316 337 1 35 37 50 69 45 21 41 42 77 135 176 216 76 14 2 90 81 199 140 75 106 98 66 55 50 50 54 50 47 44 40 40 40 37
322 290 229 169 180 188 181 226 235 210 250 254 258 281 337 340 330 38 26 301 189 92 15 336 335 348 19 27 13 20 50 63 88 89 79 70 28 10 40 49 40 35 48 62 325 343 355 30 64 51 359 342 350 353 11 19 22 47 36 12 23 18 14 61 28 56 67 344 353 114 109 182 133 81 78 72 54 48 41 38 41 40 41 42 40 38 36 33
351 308 225 178 184 200 228 274 285 283 280 266 279 302 315 308 330 13 350 318 3 68 68 341 349 355 10 28 10 343 4 77 98 90 79 81 34 27 54 62 59 54 57 62 47 50 93 74 65 95 124 192 123 9 319 335 339 7 27 15 13 9 10 33 60 62 64 335 22 93 132 143 116 78 65 58 49 44 33 29 31 31 35 41 41 38 34 29
359 169 194 188 196 215 248 271 274 288 294 288 316 302 280 273 14 9 343 336 16 33 29 350 345 351 11 25 16 345 342 11 24 110 115 103 75 37 66 84 83 67 50 34 23 39 94 65 44 103 143 170 171 175 173 94 6 18 28 22 20 12 18 62 86 85 141 86 40 68 140 125 97 69 67 58 51 50 35 27 25 23 27 34 39 40 36 30
13 303 204 147 206 231 264 277 267 257 269 263 241 231 248 257 62 45 359 344 19 27 15 326 293 216 82 72 52 354 338 1 2 22 106 92 58 15 43 88 94 95 87 35 4 19 88 40 6 54 100 175 169 155 118 63 47 52 52 37 28 21 30 60 73 115 157 107 73 226 136 113 87 61 63 56 53 54 43 35 29 23 25 30 35 38 34 30
254 300 304 5 259 212 224 252 242 233 247 244 238 345 254 210 103 69 329 310 348 40 57 333 302 296 290 162 127 78 320 16 17 32 76 73 52 16 10 15 39 83 94 41 351 20 99 53 343 44 19 260 143 125 119 90 64 56 58 55 45 35 38 52 54 50 85 96 121 129 98 92 82 66 59 52 53 53 48 44 37 31 30 30 32 35 31 28
275 313 330 344 318 269 239 232 223 217 231 220 97 304 274 112 119 127 25 336 309 144 118 274 286 296 300 281 127 118 152 82 51 24 55 71 93 69 23 358 18 51 87 86 335 11 85 137 183 149 214 246 54 76 100 94 75 56 49 54 57 50 48 52 45 42 65 78 85 90 84 76 70 64 58 54 52 52 49 46 40 36 32 31 34 36 33 30
289 321 340 342 335 298 269 248 227 205 207 59 63 236 242 67 140 160 123 94 23 6 47 271 289 321 325 349 85 100 112 118 120 121 90 102 116 102 82 153 4 19 73 125 186 247 109 197 199 180 171 90 74 78 87 89 83 66 44 37 48 49 42 45 40 33 53 75 83 89 86 75 69 70 65 56 50 49 47 43 41 37 34 35 37 36 34 31
286 306 325 326 317 278 255 232 195 146 109 71 190 211 147 162 198 167 130 113 100 140 317 30 44 14 355 28 60 61 57 86 94 43 3 49 146 170 158 167 179 192 73 124 137 166 161 175 217 162 105 97 106 103 103 99 85 67 39 21 33 52 48 43 42 32 28 55 86 85 79 69 74 76 68 58 53 52 47 43 42 40 38 40 40 39 37 35
311 347 333 287 261 279 259 197 164 140 130 184 166 86 17 168 119 86 85 45 80 172 60 55 61 25 10 42 47 30 30 41 39 11 349 348 344 333 338 172 177 169 142 129 104 117 127 122 169 138 99 110 136 132 134 118 79 53 15 0 19 79 85 63 45 33 24 24 65 71 64 66 74 77 73 63 56 54 49 45 46 46 45 44 42 42 41 39
Height
1495 1495 1495 1495 1494 1494 1494 1494 1493 1493 1493 1493 1492 1492 1492 1492 1491 1491 1490 1490 1490 1489 1489 1489 1488 1488 1487 1487 1486 1485 1484 1483 1483 1482 1480 1479 1480 1480 1481 1482 1483 1484 1484 1485 1486 1487 1488 1490 1491 1492 1494 1494 1495 1494 1493 1493 1492 1493 1494 1498 1499 1496 1492 1484 1481 1479 1478 1478 1475 1474 1472 1473 1475 1474 1473 1474 1474 1474 1475 1476 1475 1476 1478 1479 1481 1483 1486 1490
1494 1494 1493 1493 1493 1493 1493 1492 1492 1492 1492 1492 1491 1491 1491 1491 1490 1490 1489 1489 1489 1489 1488 1488 1487 1487 1486 1486 1485 1484 1482 1481 1481 1478 1476 1478 1479 1479 1480 1480 1481 1482 1483 1484 1485 1486 1487 1489 1490 1492 1493 1493 1493 1492 1492 1491 1490 1490 1491 1495 1494 1490 1484 1478 1477 1476 1475 1477 1475 1474 1474 1474 1475 1474 1474 1475 1475 1474 1476 1479 1478 1479 1480 1480 1481 1483 1486 1491
1493 1493 1492 1492 1492 1491 1491 1491 1491 1490 1490 1490 1490 1490 1490 1490 1489 1489 1489 1488 1488 1488 1487 1487 1486 1486 1485 1485 1484 1483 1481 1480 1478 1475 1474 1477 1477 1477 1478 1479 1480 1481 1482 1484 1485 1486 1487 1488 1490 1491 1492 1492 1491 1491 1490 1490 1489 1487 1490 1492 1488 1483 1479 1476 1476 1474 1473 1475 1475 1476 1475 1475 1475 1474 1475 1476 1475 1473 1476 1479 1479 1481 1483 1483 1484 1485 1488 1491
1492 1492 1491 1491 1491 1490 1490 1490 1489 1489 1489 1489 1488 1489 1488 1488 1488 1488 1487 1487 1487 1487 1486 1486 1485 1485 1485 1484 1483 1482 1481 1480 1475 1472 1473 1474 1475 1476 1477 1478 1479 1480 1481 1483 1484 1485 1486 1488 1489 1490 1491 1490 1489 1488 1488 1488 1487 1485 1487 1488 1483 1480 1480 1477 1474 1473 1473 1474 1476 1477 1477 1476 1476 1476 1476 1476 1478 1477 1476 1477 1477 1479 1481 1483 1486 1487 1489 1490
1491 1491 1490 1490 1490 1489 1489 1489 1488 1488 1487 1487 1487 1487 1487 1487 1487 1487 1486 1486 1486 1485 1485 1485 1484 1484 1484 1483 1483 1481 1482 1480 1474 1471 1472 1473 1474 1475 1475 1477 1478 1479 1481 1483 1483 1484 1485 1486 1488 1489 1489 1488 1487 1487 1485 1484 1484 1484 1482 1481 1479 1480 1480 1475 1473 1473 1472 1474 1476 1477 1478 1478 1476 1476 1476 1477 1480 1479 1477 1477 1477 1477 1479 1482 1485 1487 1488 1490
1490 1489 1489 1489 1488 1488 1488 1488 1487 1486 1486 1485 1485 1485 1485 1486 1486 1486 1485 1485 1484 1484 1484 1483 1483 1483 1482 1482 1482 1481 1482 1478 1472 1471 1472 1472 1473 1474 1475 1476 1477 1478 1480 1481 1482 1483 1484 1485 1486 1487 1487 1486 1486 1485 1483 1480 1481 1483 1481 1477 1477 1477 1476 1474 1472 1472 1472 1473 1475 1476 1477 1477 1476 1476 1476 1476 1478 1476 1476 1477 1477 1477 1478 1481 1483 1485 1487 1489
1488 1488 1488 1487 1487 1487 1486 1486 1486 1485 1484 1484 1484 1483 1484 1484 1484 1484 1484 1483 1483 1483 1483 1482 1482 1481 1481 1482 1480 1480 1480 1475 1470 1472 1472 1472 1473 1473 1475 1476 1476 1478 1478 1479 1481 1482 1483 1483 1484 1484 1485 1485 1484 1482 1480 1478 1478 1481 1480 1476 1475 1474 1473 1472 1472 1472 1472 1473 1474 1475 1476 1476 1477 1478 1477 1476 1476 1476 1477 1477 1477 1477 1478 1480 1481 1484 1486 1488
1487 1487 1486 1486 1486 1485 1485 1485 1485 1484 1483 1483 1482 1482 1482 1482 1483 1483 1482 1482 1482 1482 1482 1481 1481 1480 1480 1481 1480 1479 1478 1473 1470 1471 1472 1472 1473 1473 1475 1475 1476 1476 1477 1478 1480 1481 1482 1482 1483 1483 1483 1483 1481 1479 1477 1477 1476 1478 1478 1474 1473 1472 1471 1471 1471 1470 1471 1472 1473 1474 1476 1476 1476 1477 1477 1476 1475 1476 1477 1476 1477 1478 1479 1480 1482 1484 1486 1488
1486 1485 1485 1485 1484 1484 1483 1483 1483 1483 1482 1482 1481 1481 1480 1481 1481 1481 1481 1481 1481 1481 1481 1480 1480 1480 1480 1479 1480 1478 1473 1470 1469 1470 1471 1472 1473 1473 1474 1474 1474 1475 1476 1478 1479 1480 1481 1481 1481 1481 1481 1480 1479 1477 1476 1478 1477 1474 1474 1472 1471 1471 1470 1470 1470 1469 1470 1471 1472 1474 1475 1475 1475 1476 1476 1475 1475 1475 1476 1476 1477 1478 1478 1480 1482 1484 1486 1488
1484 1484 1484 1483 1483 1483 1482 1482 1481 1481 1481 1481 1480 1480 1479 1479 1479 1480 1480 1480 1480 1480 1479 1479 1479 1479 1479 1479 1480 1478 1470 1468 1469 1470 1471 1472 1472 1473 1473 1473 1473 1474 1476 1478 1478 1479 1479 1480 1480 1480 1481 1479 1478 1476 1475 1477 1475 1470 1470 1470 1470 1470 1469 1469 1469 1469 1470 1470 1471 1473 1474 1474 1473 1476 1476 1474 1473 1473 1474 1475 1477 1478 1477 1479 1481 1483 1485 1487
1483 1483 1482 1482 1481 1481 1481 1480 1479 1479 1480 1479 1479 1478 1477 1477 1478 1479 1479 1479 1479 1479 1478 1478 1478 1478 1478 1478 1479 1475 1468 1468 1469 1470 1471 1471 1471 1472 1472 1472 1472 1473 1475 1477 1478 1478 1478 1478 1479 1480 1480 1478 1476 1475 1473 1472 1470 1468 1469 1470 1469 1468 1468 1468 1468 1468 1469 1469 1470 1471 1472 1473 1473 1475 1474 1472 1472 1472 1472 1474 1476 1477 1477 1478 1480 1482 1484 1486
1482 1481 1481 1480 1480 1480 1479 1479 1478 1478 1478 1478 1478 1477 1476 1476 1477 1477 1478 1478 1478 1477 1477 1477 1477 1477 1477 1477 1474 1470 1467 1468 1469 1468 1469 1469 1470 1470 1471 1472 1472 1473 1474 1475 1476 1477 1477 1477 1478 1479 1478 1477 1476 1475 1474 1471 1469 1468 1469 1472 1471 1469 1469 1468 1467 1468 1469 1469 1469 1470 1475 1476 1473 1472 1470 1469 1471 1471 1472 1473 1474 1475 1476 1478 1480 1481 1483 1484
1480 1480 1480 1480 1479 1478 1478 1477 1476 1476 1476 1477 1476 1475 1474 1474 1475 1476 1476 1477 1476 1476 1476 1476 1476 1476 1477 1474 1468 1466 1466 1468 1469 1468 1467 1468 1470 1469 1470 1471 1471 1473 1474 1474 1475 1477 1478 1477 1477 1477 1476 1476 1475 1475 1474 1470 1469 1469 1469 1472 1474 1475 1472 1466 1466 1467 1468 1468 1466 1471 1483 1481 1472 1469 1466 1468 1469 1469 1471 1472 1473 1474 1476 1478 1479 1480 1481 1483
1479 1479 1479 1478 1478 1477 1476 1476 1475 1475 1475 1475 1475 1473 1472 1473 1474 1474 1475 1476 1475 1475 1475 1475 1475 1475 1475 1469 1463 1465 1465 1465 1468 1468 1467 1468 1469 1469 1470 1471 1472 1473 1473 1473 1475 1476 1476 1475 1476 1475 1475 1476 1475 1475 1474 1471 1470 1470 1472 1473 1475 1481 1474 1462 1463 1466 1466 1466 1463 1471 1484 1480 1469 1467 1465 1465 1467 1466 1468 1470 1471 1473 1475 1477 1479 1479 1479 1481
1478 1478 1478 1477 1477 1476 1475 1474 1473 1473 1474 1473 1473 1472 1471 1471 1472 1473 1474 1474 1474 1474 1473 1474 1474 1474 1474 1467 1462 1463 1464 1464 1465 1466 1467 1467 1468 1469 1469 1471 1472 1472 1473 1474 1474 1475 1475 1474 1475 1475 1476 1476 1476 1477 1476 1475 1472 1470 1478 1480 1477 1480 1473 1461 1461 1462 1463 1463 1461 1469 1481 1477 1466 1463 1463 1464 1465 1464 1466 1468 1469 1471 1474 1477 1479 1479 1479 1480
1477 1477 1476 1476 1475 1475 1474 1473 1472 1472 1472 1471 1471 1470 1469 1470 1470 1471 1472 1472 1473 1473 1473 1474 1473 1474 1473 1466 1461 1462 1462 1462 1463 1464 1466 1466 1467 1468 1469 1471 1472 1472 1473 1474 1474 1474 1474 1474 1475 1476 1476 1476 1477 1478 1478 1481 1478 1472 1478 1482 1478 1477 1473 1466 1458 1454 1457 1461 1462 1467 1476 1475 1465 1459 1461 1461 1459 1461 1465 1467 1468 1471 1473 1476 1478 1479 1479 1480
1475 1475 1475 1475 1474 1474 1473 1472 1471 1470 1470 1470 1470 1469 1468 1468 1469 1470 1471 1471 1472 1471 1473 1473 1474 1475 1469 1462 1460 1459 1458 1460 1461 1463 1464 1465 1466 1467 1469 1470 1471 1473 1473 1474 1475 1474 1475 1475 1476 1477 1476 1476 1476 1478 1483 1489 1487 1479 1476 1478 1476 1473 1472 1469 1458 1449 1452 1459 1463 1465 1470 1472 1463 1458 1459 1456 1452 1457 1464 1466 1468 1470 1473 1475 1477 1478 1479 1479
1473 1474 1474 1474 1473 1472 1472 1471 1470 1469 1469 1468 1468 1467 1467 1467 1467 1468 1469 1470 1471 1472 1473 1472 1475 1475 1465 1457 1456 1454 1455 1458 1459 1461 1463 1464 1465 1467 1469 1469 1470 1472 1473 1474 1474 1474 1475 1474 1475 1476 1476 1476 1476 1478 1487 1488 1483 1480 1478 1478 1476 1471 1468 1467 1460 1453 1453 1459 1464 1467 1470 1469 1463 1459 1459 1456 1454 1457 1462 1464 1466 1468 1471 1474 1475 1476 1478 1478
1472 1472 1472 1472 1472 1471 1470 1469 1468 1468 1467 1467 1467 1466 1466 1466 1466 1466 1467 1469 1469 1469 1469 1467 1468 1466 1457 1452 1452 1451 1453 1457 1458 1460 1462 1463 1464 1466 1468 1469 1470 1471 1472 1474 1473 1472 1474 1474 1476 1479 1478 1477 1475 1476 1480 1478 1473 1473 1473 1474 1475 1472 1467 1461 1456 1453 1453 1459 1464 1466 1470 1468 1464 1461 1459 1459 1459 1458 1459 1462 1464 1466 1468 1471 1473 1475 1476 1477
1471 1471 1471 1471 1470 1470 1469 1468 1467 1466 1466 1466 1466 1465 1465 1465 1464 1465 1467 1466 1464 1462 1461 1460 1459 1456 1451 1449 1450 1450 1453 1456 1457 1458 1460 1462 1463 1464 1466 1468 1469 1470 1471 1472 1472 1471 1472 1476 1478 1478 1477 1474 1472 1471 1472 1470 1469 1469 1469 1471 1471 1471 1468 1458 1453 1451 1451 1460 1465 1464 1467 1467 1464 1461 1458 1459 1461 1460 1460 1461 1463 1465 1467 1470 1471 1473 1475 1476
1469 1470 1469 1469 1469 1468 1467 1467 1466 1466 1465 1465 1465 1464 1464 1464 1464 1465 1465 1462 1460 1458 1457 1457 1458 1455 1450 1448 1450 1451 1452 1455 1456 1457 1459 1461 1462 1464 1464 1465 1467 1470 1469 1469 1470 1469 1471 1477 1477 1472 1471 1470 1469 1468 1468 1468 1467 1468 1470 1472 1471 1469 1467 1459 1453 1452 1450 1459 1466 1463 1464 1466 1464 1462 1458 1457 1459 1461 1461 1461 1463 1465 1467 1469 1470 1472 1474 1475
1468 1468 1468 1468 1467 1467 1466 1465 1465 1465 1464 1464 1464 1463 1463 1464 1464 1465 1464 1460 1456 1455 1454 1454 1456 1455 1448 1447 1450 1451 1452 1453 1454 1455 1457 1459 1461 1462 1462 1463 1466 1468 1467 1468 1469 1471 1474 1475 1470 1466 1466 1466 1466 1466 1466 1466 1466 1468 1470 1472 1473 1469 1466 1461 1455 1453 1452 1458 1464 1463 1465 1467 1464 1463 1461 1458 1458 1458 1459 1459 1461 1463 1465 1467 1468 1469 1471 1474
1467 1466 1467 1467 1466 1466 1465 1464 1464 1464 1463 1463 1463 1462 1463 1463 1462 1463 1464 1460 1453 1450 1450 1449 1451 1451 1447 1445 1448 1450 1450 1450 1452 1453 1455 1457 1459 1460 1461 1463 1465 1465 1466 1468 1469 1474 1476 1469 1462 1462 1464 1464 1465 1464 1464 1466 1466 1468 1469 1474 1475 1467 1468 1470 1462 1457 1456 1458 1462 1463 1465 1466 1463 1462 1462 1460 1459 1458 1458 1458 1458 1460 1461 1463 1464 1464 1466 1469
1465 1465 1466 1465 1464 1464 1463 1463 1463 1462 1462 1462 1461 1461 1462 1462 1462 1463 1462 1460 1453 1445 1443 1444 1445 1447 1444 1443 1446 1448 1448 1449 1450 1450 1452 1455 1456 1459 1461 1461 1463 1465 1464 1463 1465 1469 1467 1458 1456 1461 1462 1462 1464 1462 1462 1466 1468 1468 1467 1472 1473 1467 1468 1470 1463 1459 1458 1459 1460 1463 1470 1470 1463 1464 1463 1458 1458 1457 1457 1457 1457 1457 1458 1459 1460 1461 1462 1464
1464 1464 1464 1463 1463 1462 1462 1462 1461 1461 1461 1460 1461 1460 1462 1462 1461 1463 1462 1460 1455 1442 1437 1439 1441 1442 1442 1442 1445 1445 1447 1447 1447 1448 1449 1452 1455 1457 1458 1459 1462 1464 1462 1460 1461 1464 1459 1452 1454 1458 1458 1459 1461 1461 1460 1463 1468 1469 1467 1467 1469 1468 1467 1466 1463 1463 1469 1470 1461 1462 1478 1479 1465 1465 1465 1460 1459 1458 1457 1457 1456 1456 1459 1459 1459 1459 1459 1460
1463 1463 1462 1462 1462 1461 1461 1460 1460 1461 1459 1460 1461 1460 1462 1462 1462 1463 1462 1463 1457 1440 1434 1437 1437 1438 1439 1440 1442 1444 1448 1447 1444 1447 1447 1449 1453 1454 1456 1457 1457 1459 1458 1456 1457 1458 1453 1449 1450 1453 1455 1456 1458 1460 1458 1459 1467 1473 1468 1464 1465 1466 1467 1467 1465 1469 1477 1476 1463 1460 1479 1486 1473 1467 1465 1462 1462 1462 1461 1461 1459 1458 1461 1461 1461 1461 1462 1462
1462 1461 1461 1461 1460 1460 1460 1459 1460 1460 1458 1460 1460 1461 1464 1461 1462 1463 1461 1468 1459 1434 1430 1435 1433 1434 1435 1436 1439 1444 1448 1444 1442 1445 1445 1447 1450 1451 1455 1455 1454 1456 1452 1453 1459 1455 1448 1448 1449 1449 1452 1454 1457 1459 1456 1457 1468 1473 1465 1462 1465 1465 1467 1467 1465 1470 1472 1468 1464 1462 1470 1483 1482 1471 1462 1460 1463 1466 1465 1464 1465 1462 1462 1463 1463 1463 1464 1466
1460 1460 1460 1460 1459 1459 1459 1458 1459 1458 1458 1459 1458 1461 1462 1460 1462 1462 1464 1471 1452 1425 1427 1432 1431 1433 1433 1435 1438 1440 1441 1438 1440 1443 1443 1446 1448 1449 1452 1452 1452 1453 1448 1452 1461 1453 1444 1446 1448 1447 1450 1453 1455 1455 1454 1456 1465 1467 1461 1461 1463 1463 1465 1465 1465 1469 1468 1468 1476 1470 1465 1482 1486 1470 1462 1461 1465 1472 1469 1466 1466 1465 1465 1467 1465 1463 1463 1466
1459 1458 1458 1459 1458 1458 1458 1457 1458 1457 1458 1458 1458 1460 1459 1460 1462 1460 1467 1467 1438 1421 1427 1429 1430 1433 1432 1434 1437 1437 1437 1435 1438 1440 1441 1445 1447 1447 1450 1450 1450 1451 1448 1449 1454 1449 1442 1443 1443 1444 1448 1450 1451 1451 1451 1456 1461 1459 1458 1459 1460 1460 1462 1462 1465 1470 1471 1479 1488 1476 1467 1483 1487 1472 1468 1470 1471 1476 1473 1468 1467 1466 1468 1470 1468 1466 1464 1466
1457 1457 1457 1457 1457 1457 1456 1456 1456 1457 1457 1457 1458 1458 1458 1461 1460 1462 1472 1459 1429 1422 1427 1427 1429 1431 1431 1434 1437 1437 1436 1435 1435 1437 1440 1444 1445 1446 1447 1448 1448 1449 1448 1447 1447 1444 1440 1440 1439 1441 1444 1444 1446 1448 1450 1454 1455 1455 1457 1459 1461 1462 1461 1462 1464 1467 1478 1489 1487 1476 1469 1479 1489 1483 1478 1479 1477 1475 1474 1472 1471 1470 1471 1472 1471 1469 1467 1468
1455 1455 1455 1455 1456 1456 1455 1455 1456 1456 1457 1456 1457 1457 1459 1460 1459 1466 1466 1441 1424 1426 1427 1428 1429 1427 1430 1434 1436 1437 1436 1435 1433 1436 1440 1442 1445 1447 1447 1449 1449 1450 1452 1450 1448 1443 1440 1442 1440 1438 1440 1440 1444 1448 1450 1451 1451 1454 1457 1461 1467 1469 1467 1471 1471 1473 1489 1496 1483 1473 1469 1475 1491 1492 1483 1479 1477 1474 1474 1474 1475 1475 1476 1476 1474 1473 1471 1472
1454 1454 1454 1454 1454 1454 1454 1455 1455 1456 1456 1456 1456 1458 1460 1461 1462 1464 1450 1430 1428 1430 1424 1426 1427 1424 1428 1432 1433 1435 1435 1435 1433 1434 1439 1441 1446 1447 1448 1450 1450 1455 1460 1455 1452 1447 1443 1442 1439 1439 1439 1440 1446 1452 1453 1453 1452 1454 1458 1464 1476 1483 1484 1489 1489 1487 1494 1492 1477 1470 1472 1479 1490 1490 1482 1480 1478 1475 1475 1475 1476 1478 1480 1481 1480 1479 1478 1478
1452 1452 1452 1452 1452 1452 1453 1454 1455 1456 1456 1456 1457 1458 1459 1464 1461 1453 1442 1433 1430 1424 1417 1420 1422 1422 1427 1431 1432 1431 1433 1434 1431 1433 1436 1439 1445 1447 1447 1447 1445 1453 1459 1455 1454 1454 1450 1445 1439 1440 1441 1439 1445 1454 1460 1460 1455 1457 1461 1468 1481 1489 1497 1502 1498 1494 1494 1486 1474 1468 1473 1485 1492 1487 1482 1481 1480 1478 1477 1478 1479 1480 1481 1484 1484 1483 1483 1483
1451 1450 1450 1450 1450 1450 1451 1453 1454 1456 1456 1456 1458 1459 1460 1463 1453 1440 1438 1434 1424 1417 1413 1415 1418 1420 1424 1428 1427 1427 1431 1433 1428 1431 1436 1439 1447 1448 1447 1447 1444 1447 1451 1453 1454 1454 1459 1458 1445 1442 1442 1440 1443 1449 1455 1457 1456 1457 1456 1462 1474 1479 1490 1497 1492 1491 1491 1484 1475 1470 1476 1488 1493 1489 1483 1480 1480 1478 1479 1480 1481 1482 1483 1484 1484 1483 1483 1484
1449 1449 1448 1447 1447 1448 1450 1452 1454 1455 1457 1456 1458 1460 1460 1457 1447 1437 1436 1430 1420 1415 1410 1409 1414 1419 1423 1423 1421 1420 1426 1430 1427 1430 1436 1440 1446 1447 1445 1446 1444 1444 1449 1456 1454 1449 1456 1456 1441 1437 1439 1438 1443 1445 1446 1453 1459 1457 1451 1460 1469 1467 1472 1481 1480 1478 1481 1484 1482 1477 1485 1489 1485 1485 1481 1479 1481 1480 1481 1483 1483 1484 1484 1483 1484 1484 1484 1484
1448 1447 1446 1445 1446 1447 1448 1451 1453 1455 1456 1456 1459 1460 1455 1448 1440 1434 1430 1423 1418 1414 1410 1413 1418 1422 1425 1423 1420 1419 1421 1424 1426 1431 1436 1438 1441 1442 1441 1441 1440 1441 1445 1452 1451 1448 1455 1451 1435 1434 1437 1436 1441 1443 1443 1452 1459 1456 1455 1461 1459 1453 1459 1472 1477 1471 1474 1489 1487 1478 1490 1493 1486 1486 1484 1481 1485 1485 1486 1488 1487 1488 1487 1485 1486 1486 1486 1485
1447 1446 1446 1445 1445 1447 1448 1450 1453 1455 1456 1457 1459 1456 1448 1441 1434 1429 1424 1420 1418 1415 1415 1423 1425 1425 1428 1425 1422 1420 1420 1422 1425 1430 1436 1437 1438 1437 1436 1436 1436 1437 1439 1444 1446 1443 1450 1451 1437 1434 1439 1436 1437 1441 1441 1444 1449 1456 1461 1457 1450 1452 1457 1465 1477 1479 1481 1493 1487 1478 1492 1499 1495 1496 1491 1487 1492 1493 1493 1493 1492 1493 1491 1490 1489 1488 1488 1488
1446 1445 1445 1444 1445 1446 1448 1450 1452 1454 1455 1457 1458 1452 1444 1438 1431 1427 1424 1422 1421 1418 1420 1427 1427 1424 1426 1426 1423 1418 1419 1425 1427 1428 1434 1436 1437 1436 1434 1433 1433 1433 1433 1438 1444 1440 1443 1453 1444 1434 1438 1437 1433 1440 1446 1443 1442 1449 1453 1448 1450 1464 1468 1466 1475 1482 1487 1493 1488 1486 1495 1500 1502 1503 1499 1497 1498 1497 1497 1495 1495 1496 1496 1496 1494 1492 1491 1490
1445 1445 1444 1444 1445 1446 1448 1450 1452 1454 1456 1457 1457 1450 1441 1435 1428 1425 1425 1424 1424 1423 1424 1428 1426 1424 1423 1422 1421 1418 1420 1426 1427 1428 1434 1438 1440 1438 1436 1435 1433 1434 1433 1434 1440 1439 1439 1453 1453 1437 1434 1436 1435 1443 1452 1450 1444 1444 1447 1446 1449 1459 1465 1465 1469 1473 1480 1488 1488 1492 1501 1503 1504 1505 1503 1503 1501 1498 1498 1496 1496 1498 1500 1500 1499 1496 1495 1493
1445 1445 1444 1443 1445 1446 1448 1451 1452 1455 1456 1453 1451 1445 1437 1430 1426 1425 1426 1426 1426 1426 1428 1429 1429 1429 1426 1420 1419 1418 1419 1424 1426 1429 1435 1439 1442 1441 1438 1437 1437 1437 1436 1434 1437 1438 1438 1449 1455 1444 1436 1440 1443 1444 1448 1450 1449 1450 1452 1453 1453 1453 1454 1459 1464 1463 1469 1481 1485 1493 1507 1509 1504 1501 1503 1504 1502 1499 1498 1496 1497 1500 1501 1502 1501 1500 1499 1495
1447 1447 1445 1444 1446 1446 1449 1452 1453 1453 1453 1449 1445 1441 1435 1430 1427 1425 1427 1428 1428 1428 1428 1429 1430 1431 1430 1426 1423 1420 1420 1425 1428 1431 1437 1441 1444 1445 1441 1439 1439 1436 1437 1439 1440 1444 1445 1448 1452 1450 1446 1448 1446 1440 1439 1443 1449 1454 1457 1458 1460 1460 1460 1466 1471 1462 1459 1472 1479 1487 1507 1514 1505 1500 1502 1504 1504 1501 1499 1497 1499 1500 1501 1503 1502 1501 1500 1497
1448 1449 1446 1445 1447 1447 1449 1452 1451 1451 1450 1446 1442 1438 1433 1429 1426 1426 1428 1428 1429 1428 1427 1428 1429 1429 1429 1429 1427 1425 1426 1429 1431 1436 1442 1443 1444 1447 1443 1439 1440 1438 1441 1446 1446 1445 1446 1447 1451 1454 1451 1448 1443 1439 1441 1443 1446 1453 1461 1463 1464 1466 1468 1474 1481 1471 1463 1472 1477 1484 1505 1514 1507 1502 1502 1504 1505 1502 1501 1500 1500 1501 1502 1503 1504 1503 1501 1499
1449 1448 1446 1446 1448 1448 1450 1451 1450 1449 1447 1442 1438 1434 1431 1429 1427 1427 1428 1429 1429 1429 1429 1429 1429 1429 1429 1429 1428 1429 1430 1433 1435 1440 1443 1443 1443 1445 1443 1440 1441 1441 1443 1449 1449 1445 1446 1451 1456 1457 1451 1446 1442 1441 1443 1445 1449 1458 1466 1467 1466 1469 1469 1471 1475 1472 1473 1482 1481 1486 1506 1514 1508 1504 1503 1504 1505 1503 1502 1502 1501 1502 1503 1504 1505 1504 1502 1502
1447 1447 1446 1446 1448 1449 1450 1450 1448 1447 1444 1440 1437 1434 1432 1430 1430 1430 1431 1430 1429 1429 1431 1431 1429 1430 1430 1429 1430 1431 1433 1437 1441 1441 1442 1445 1445 1445 1443 1442 1443 1444 1447 1451 1451 1449 1452 1458 1462 1464 1465 1461 1457 1455 1455 1457 1462 1468 1474 1472 1469 1471 1469 1467 1467 1467 1477 1488 1483 1487 1508 1514 1507 1505 1505 1505 1505 1505 1505 1504 1504 1504 1504 1505 1505 1503 1503 1504
1447 1447 1447 1446 1448 1449 1448 1447 1446 1446 1444 1440 1438 1435 1434 1433 1432 1432 1433 1431 1429 1430 1433 1433 1431 1431 1430 1431 1433 1433 1432 1436 1442 1443 1444 1446 1447 1445 1445 1445 1444 1445 1448 1451 1449 1449 1455 1463 1465 1471 1478 1478 1478 1478 1477 1478 1477 1476 1478 1476 1474 1473 1470 1469 1472 1473 1482 1490 1489 1494 1507 1511 1508 1508 1509 1509 1508 1507 1507 1506 1506 1506 1507 1508 1507 1506 1506 1507
1447 1448 1448 1447 1448 1448 1447 1445 1445 1446 1444 1442 1440 1437 1436 1435 1433 1433 1435 1433 1431 1432 1433 1434 1433 1433 1434 1435 1438 1438 1435 1435 1439 1442 1444 1447 1448 1447 1446 1447 1447 1447 1447 1448 1448 1449 1456 1464 1468 1471 1475 1477 1481 1483 1481 1483 1485 1484 1483 1481 1479 1478 1475 1473 1478 1484 1488 1492 1498 1501 1502 1506 1511 1512 1513 1514 1513 1511 1511 1509 1509 1509 1509 1510 1510 1510 1510 1510
1448 1448 1447 1447 1448 1447 1446 1445 1444 1445 1443 1442 1441 1438 1437 1437 1435 1436 1437 1436 1435 1435 1436 1436 1435 1436 1438 1439 1442 1444 1442 1440 1441 1442 1444 1448 1450 1448 1448 1448 1448 1449 1448 1448 1449 1451 1459 1469 1471 1471 1473 1472 1474 1477 1478 1482 1487 1487 1487 1486 1485 1485 1482 1481 1485 1489 1490 1491 1499 1502 1499 1505 1514 1515 1516 1518 1516 1515 1515 1514 1514 1513 1513 1513 1513 1513 1513 1513
1448 1447 1446 1447 1447 1446 1446 1444 1443 1444 1442 1440 1439 1438 1438 1437 1438 1440 1440 1437 1437 1438 1439 1440 1438 1437 1439 1440 1443 1446 1445 1446 1450 1449 1448 1450 1451 1451 1451 1450 1449 1451 1451 1453 1456 1457 1464 1473 1474 1476 1479 1475 1470 1473 1478 1485 1489 1489 1489 1491 1492 1491 1491 1491 1492 1492 1491 1493 1498 1503 1504 1509 1515 1517 1519 1520 1518 1518 1518 1517 1517 1516 1516 1516 1515 1514 1514 1514
1448 1447 1446 1446 1445 1444 1443 1441 1439 1441 1440 1438 1438 1439 1438 1438 1439 1441 1440 1439 1441 1440 1440 1443 1441 1438 1439 1438 1440 1446 1447 1450 1456 1455 1452 1453 1454 1455 1456 1455 1454 1453 1454 1459 1462 1461 1467 1474 1476 1479 1483 1481 1476 1477 1480 1486 1491 1493 1494 1494 1496 1497 1497 1497 1497 1496 1497 1499 1503 1507 1511 1514 1519 1522 1522 1521 1520 1520 1520 1519 1518 1517 1518 1518 1517 1517 1516 1515
1448 1448 1447 1446 1445 1443 1442 1440 1437 1438 1438 1438 1440 1440 1438 1439 1440 1439 1439 1441 1443 1442 1440 1443 1442 1440 1440 1439 1441 1447 1448 1449 1454 1454 1452 1453 1454 1455 1457 1459 1457 1455 1456 1460 1463 1463 1468 1474 1473 1474 1480 1485 1484 1483 1486 1490 1494 1499 1502 1500 1499 1501 1503 1502 1503 1502 1502 1505 1507 1510 1514 1519 1523 1524 1523 1523 1523 1522 1521 1520 1519 1519 1520 1519 1519 1518 1518 1516
1448 1449 1448 1448 1447 1442 1439 1438 1436 1437 1439 1439 1441 1440 1438 1440 1439 1438 1440 1441 1442 1443 1442 1443 1443 1443 1443 1444 1446 1449 1448 1447 1450 1452 1451 1452 1453 1453 1455 1456 1456 1457 1457 1459 1461 1462 1465 1470 1471 1470 1478 1488 1488 1487 1492 1493 1492 1500 1508 1507 1505 1507 1510 1511 1511 1509 1509 1509 1509 1510 1516 1522 1525 1524 1524 1525 1525 1523 1523 1523 1522 1522 1522 1521 1521 1520 1519 1518
1449 1449 1448 1450 1448 1441 1437 1436 1435 1438 1440 1439 1439 1439 1439 1439 1437 1438 1442 1442 1442 1443 1442 1443 1445 1446 1447 1449 1450 1450 1449 1449 1450 1451 1451 1451 1451 1451 1452 1452 1453 1455 1457 1458 1461 1462 1462 1467 1471 1469 1477 1488 1488 1487 1491 1489 1491 1503 1513 1512 1510 1511 1513 1516 1516 1514 1513 1512 1513 1517 1521 1524 1525 1524 1525 1527 1526 1526 1526 1525 1525 1525 1524 1523 1523 1522 1521 1520